Location: Alvediston
(51.0078°N, 2.0364°W)
Time: 16:28:44
(UTC+00:00)

Cosmos 389 Rocket - Pass Details

Date: 27 February 2020
Orbit: 443 x 477 km, 81.1° (Epoch: 30 March)

Event Time Altitude Azimuth Distance (km) Brightness Sun altitude
Rises 19:14:57 0° 357° (N) 2,548 6.3 -14.9°
Reaches altitude 10° 19:17:22 10° 11° (N) 1,664 5.2 -15.3°
Enters shadow 19:19:45 23° 51° (NE) 1,066 3.9 -15.7°
